Temperature
19 17 16 17 17 18 18 18 18 18 19 18 17 17 17 17 17 17 17 17 18 18 18 18 18 18 18 17 17 17 17 17 16 16 16 16 16 15 15 15 15 15 15 15
17 17 18 18 18 18 18 18 17 18 19 18 17 17 17 16 17 17 17 17 18 18 18 18 18 18 18 18 17 17 17 17 16 16 16 16 16 15 15 15 15 15 15 15
17 18 19 19 18 18 18 17 18 18 18 18 18 17 17 17 17 17 18 18 18 18 18 18 18 18 18 18 17 17 17 17 16 16 16 16 15 15 15 15 15 15 15 15
17 18 19 19 18 18 17 18 18 18 17 16 17 16 16 16 16 16 17 17 18 18 18 18 18 18 18 18 17 17 17 17 16 16 16 16 16 15 15 15 15 15 15 15
18 18 18 18 19 18 18 18 18 17 17 16 16 16 15 15 16 16 16 17 18 18 18 18 18 18 18 18 18 17 17 17 16 16 16 16 15 15 15 15 15 15 15 15
18 19 19 19 19 19 18 17 16 14 14 15 16 15 15 15 16 16 16 17 18 18 18 18 18 18 18 18 18 17 17 17 16 16 16 16 15 15 15 15 15 15 15 15
18 19 19 19 18 18 17 16 15 15 14 15 15 15 15 16 16 17 17 17 18 18 18 18 18 18 18 18 18 17 17 17 16 16 16 16 15 15 15 15 15 15 15 15
17 17 18 19 18 17 16 16 15 15 15 14 15 15 16 17 17 18 18 18 18 18 18 18 18 18 18 18 18 17 17 17 16 16 16 16 16 15 15 15 15 15 15 15
16 17 18 19 18 17 16 15 15 14 15 15 15 15 16 17 17 17 17 17 17 18 18 18 18 18 18 18 18 18 17 17 17 16 16 16 16 16 15 15 15 15 15 15
16 17 18 18 18 17 17 15 14 14 15 15 15 16 16 17 17 16 16 17 17 18 18 18 18 18 18 18 18 18 17 17 17 16 16 16 16 16 15 15 15 15 15 15
17 16 17 18 18 17 16 15 14 13 14 14 15 15 17 17 17 16 16 17 18 18 18 18 18 18 18 18 18 18 17 17 17 16 16 16 16 16 16 15 15 15 15 15
16 15 15 16 17 17 17 16 14 15 14 14 14 15 17 17 17 17 17 18 18 18 18 18 18 18 18 18 18 18 17 17 17 17 16 16 16 16 16 16 15 15 15 15
15 15 15 16 16 17 17 16 15 14 13 13 14 16 17 17 17 18 18 18 18 18 18 18 18 18 18 18 18 18 17 17 17 17 16 16 16 16 16 16 16 16 15 15
16 14 15 16 16 16 16 16 15 14 14 13 14 16 17 17 17 17 18 18 18 18 18 18 18 18 18 18 18 18 17 17 17 17 17 16 16 16 16 16 16 16 16 15
15 15 15 16 16 16 17 17 16 15 15 15 15 15 17 17 17 18 18 18 18 18 18 18 18 18 18 18 18 18 17 17 17 17 17 16 16 16 16 16 16 16 16 16
14 15 16 16 17 17 17 17 16 16 16 15 16 16 17 17 18 17 18 18 18 18 18 18 18 18 18 18 18 18 18 17 17 17 17 16 16 16 16 16 16 16 16 16
13 14 15 15 16 17 16 17 17 17 16 16 16 17 17 16 16 17 18 18 18 18 18 19 19 19 18 18 18 18 18 17 17 17 17 16 16 16 16 16 16 16 16 16
13 13 13 14 15 16 17 17 17 17 17 16 17 16 16 17 18 19 19 19 19 19 19 19 19 19 19 19 18 18 18 17 17 17 17 16 16 16 16 16 16 16 16 16
13 13 13 13 14 15 17 17 17 17 17 16 16 16 17 17 17 18 19 19 20 20 20 19 19 19 19 19 19 18 18 17 17 17 17 17 16 16 16 16 16 16 16 16
12 13 13 13 14 15 17 17 18 17 17 17 16 16 16 16 16 17 19 20 19 19 19 19 19 19 19 19 18 18 18 17 17 17 17 17 16 16 16 16 16 16 16 15
13 12 12 13 14 15 16 17 17 17 17 18 17 17 16 16 17 19 19 19 19 19 19 19 19 19 19 18 18 18 18 18 17 17 17 17 16 16 16 16 16 15 15 15
13 12 12 12 14 15 16 16 16 17 18 18 18 18 17 18 18 19 19 19 19 19 19 19 19 19 18 18 18 18 18 18 17 17 17 17 16 16 16 16 15 15 15 15
12 13 13 13 14 16 16 17 18 18 18 18 18 18 18 18 18 19 19 19 19 19 19 19 19 19 18 18 18 18 18 18 17 17 17 17 16 16 16 15 15 15 15 15
12 12 12 13 14 15 16 17 18 18 19 19 19 19 19 18 18 18 19 18 19 19 19 18 18 18 18 18 18 18 18 17 17 17 17 16 16 16 15 15 15 15 15 15
12 11 12 12 13 15 16 17 18 18 18 19 19 18 19 19 18 18 18 18 18 18 18 18 18 18 18 18 18 17 17 17 17 17 16 16 16 16 15 15 15 15 15 15
10 11 12 13 14 14 16 17 18 18 18 18 18 18 18 18 18 18 18 18 18 18 18 18 18 18 18 17 17 17 17 17 17 17 16 16 16 16 15 15 15 14 14 14
Wind_Speed
3 4 3 6 6 5 3 2 3 5 3 3 6 7 6 7 7 8 8 8 8 8 5 4 5 7 7 6 6 5 5 5 5 3 3 3 2 2 3 4 6 6 6 6
4 3 6 4 4 3 2 1 3 4 1 3 4 6 5 7 9 9 10 10 10 8 5 5 6 7 7 7 6 5 5 5 4 3 3 3 3 2 2 3 5 6 6 5
5 5 3 4 4 3 2 4 4 3 2 3 1 5 4 4 5 6 8 9 9 11 10 8 7 7 8 8 8 7 6 6 5 5 4 4 4 4 3 3 3 4 5 5
4 4 2 3 4 5 4 4 4 2 1 2 1 3 6 4 4 7 9 9 10 10 9 9 9 9 9 9 7 7 6 6 5 5 5 5 4 2 1 1 1 3 5 5
4 2 3 4 5 6 5 1 2 1 2 1 1 2 7 2 5 9 11 11 11 11 11 11 10 10 9 8 8 7 6 5 5 5 6 6 4 2 1 2 3 3 4 5
4 2 3 5 2 4 5 5 5 5 4 1 4 4 7 5 7 7 9 11 12 12 11 10 9 8 7 7 7 7 7 5 5 5 5 6 6 5 4 2 2 2 2 3
3 2 1 3 4 3 5 6 3 4 3 5 3 3 8 7 7 8 9 11 11 11 11 10 10 10 9 9 9 8 9 6 5 6 5 5 6 6 5 3 3 2 1 1
2 4 3 3 5 5 4 7 6 4 4 4 2 5 7 6 5 4 5 7 9 11 11 12 12 11 11 11 10 9 9 7 7 6 5 5 5 4 3 3 3 3 2 1
6 5 2 2 3 8 6 3 5 5 1 2 5 6 7 2 3 1 2 6 8 11 12 12 11 11 11 11 10 11 10 8 7 6 6 5 4 4 4 3 3 2 2 2
6 3 2 1 5 4 6 8 5 4 2 3 5 5 4 5 4 2 2 5 7 8 9 10 10 11 10 10 9 9 9 9 7 7 6 5 5 4 4 4 4 3 2 2
4 4 1 1 4 6 4 4 4 4 4 4 3 6 5 6 5 5 5 6 7 8 9 9 9 10 9 9 9 9 9 8 7 7 6 6 5 4 4 4 4 3 3 3
4 4 2 5 4 5 5 7 7 5 4 4 3 6 6 6 5 4 5 5 5 7 7 8 9 9 9 10 9 9 9 8 8 7 6 6 5 5 4 4 3 3 4 3
6 5 2 3 3 1 3 5 5 5 5 5 4 7 4 3 2 2 3 4 5 6 6 7 8 10 10 10 10 9 9 8 7 7 7 6 6 5 5 4 4 4 4 4
6 4 6 8 6 4 4 5 6 6 4 5 7 8 8 6 4 4 3 4 5 6 7 8 8 9 10 10 10 10 9 8 8 8 8 7 6 6 5 4 4 4 4 5
5 4 5 6 6 4 5 6 8 8 8 8 8 8 10 8 6 4 4 4 5 6 7 9 9 9 9 9 9 9 9 8 8 8 8 7 6 5 5 4 4 4 4 4
3 4 3 3 4 4 5 7 9 8 7 7 6 8 8 6 3 3 5 6 7 8 9 9 10 10 11 11 11 10 10 9 9 9 8 7 7 6 6 5 5 5 4 4
2 4 3 3 3 1 6 7 8 6 6 8 9 9 5 3 5 6 6 8 9 9 9 10 11 12 12 12 12 12 11 9 10 9 8 8 8 7 6 6 6 6 5 4
5 4 3 2 1 6 8 4 6 7 6 6 6 6 5 6 5 5 6 8 8 8 8 9 10 10 10 10 11 10 10 11 10 9 8 8 8 7 6 6 6 5 4 4
6 6 4 3 4 6 6 2 4 5 5 4 5 4 4 2 0 3 5 6 8 8 8 8 9 9 9 10 11 12 11 10 10 10 9 9 9 8 8 7 6 5 4 4
4 5 4 4 4 6 7 4 2 4 4 3 4 4 3 3 1 5 4 4 4 5 5 6 7 7 9 10 12 13 12 11 11 10 10 9 9 9 9 8 6 4 4 4
4 4 5 5 5 7 6 3 4 4 6 3 4 4 4 5 6 4 2 2 3 4 5 6 8 9 9 10 12 12 11 12 11 9 8 8 8 8 8 7 5 5 5 5
8 6 6 5 4 7 3 5 6 6 3 3 4 4 4 4 3 2 2 2 2 3 4 6 8 7 8 10 12 12 11 10 9 9 8 8 7 7 7 7 6 6 6 6
7 7 7 8 7 5 4 6 4 3 3 3 3 2 3 2 2 2 1 2 2 4 5 5 7 8 7 9 11 11 9 8 9 9 9 8 7 6 7 8 8 6 5 5
3 2 4 3 5 5 4 3 3 3 3 3 2 2 2 3 3 2 2 2 3 3 4 5 7 8 8 7 8 8 8 9 10 10 8 8 8 7 6 6 6 6 6 5
5 4 3 3 5 3 4 3 3 2 1 0 1 1 3 4 3 3 3 3 4 4 4 6 7 8 8 8 7 7 8 10 10 9 8 7 7 7 6 5 4 5 5 5
5 6 7 6 6 5 6 4 3 2 2 1 1 1 0 3 4 4 4 4 4 4 5 6 6 7 7 8 7 7 8 10 10 8 7 6 6 6 6 6 4 4 3 4
Wind_Direction
63 83 197 207 190 178 164 175 253 263 250 187 222 242 237 194 193 197 199 201 205 211 216 192 169 152 144 141 138 140 135 136 127 111 104 96 78 48 44 50 67 80 89 98
51 257 229 190 163 151 169 215 272 290 299 198 238 261 249 202 204 202 200 202 204 203 190 178 161 152 153 157 158 149 152 150 145 131 119 116 111 80 57 45 54 62 78 91
191 238 182 157 162 162 207 201 225 248 351 23 340 308 277 237 214 209 205 202 201 199 192 179 170 168 165 171 172 168 165 156 146 131 110 89 67 52 40 34 29 28 61 84
231 247 175 168 196 165 229 223 205 202 123 296 29 285 280 250 230 219 214 203 201 200 190 182 178 177 179 180 171 161 161 155 146 139 134 132 124 118 117 67 41 36 55 72
247 199 168 196 212 173 200 109 113 120 143 338 330 222 284 283 245 236 221 211 202 195 190 189 186 183 181 172 166 157 155 153 150 147 145 135 125 127 110 80 74 53 42 56
241 236 191 196 170 147 126 75 58 49 71 295 238 196 277 240 229 238 220 212 202 193 190 190 183 172 169 162 157 150 153 158 156 151 150 147 144 141 126 106 91 62 45 40
311 295 230 144 103 63 95 90 34 356 357 261 256 217 252 253 243 230 220 210 199 187 183 181 176 175 173 168 166 161 160 164 164 160 161 162 159 157 157 156 143 120 81 53
190 277 237 181 165 164 157 139 156 203 236 282 288 243 259 271 281 258 218 191 182 182 183 185 183 180 179 176 171 166 169 169 168 167 170 165 160 158 159 160 154 151 150 144
181 242 275 191 154 138 136 159 161 139 190 277 282 284 300 299 348 3 168 171 183 185 185 186 182 179 177 177 175 173 171 169 171 170 165 164 161 160 160 154 145 146 149 143
162 212 272 160 91 58 142 142 111 129 162 271 295 286 270 291 293 288 204 199 196 187 183 183 181 180 179 176 171 167 167 169 169 167 170 170 166 166 160 149 148 151 144 118
147 164 292 124 177 169 119 120 122 130 157 172 275 280 243 248 250 243 233 212 195 186 183 183 181 178 171 162 161 166 166 162 164 169 168 156 159 156 151 155 164 159 145 137
141 130 215 250 247 180 162 167 152 160 207 185 197 271 278 259 253 235 232 214 191 184 178 174 172 167 165 165 167 170 170 170 173 171 164 160 155 151 155 165 167 155 150 147
143 125 95 348 344 163 175 174 165 141 132 163 187 263 297 315 283 249 223 201 182 169 163 161 164 171 173 173 173 173 174 176 170 161 158 155 153 157 166 169 161 154 149 140
133 135 173 200 222 202 208 192 166 147 172 200 220 251 291 298 283 267 228 197 180 174 170 168 173 178 177 177 177 175 176 172 166 160 159 163 167 169 171 164 156 156 152 146
128 167 205 231 238 204 212 213 188 192 195 200 227 234 255 262 254 243 212 193 180 182 182 182 182 181 178 177 178 178 175 170 166 162 166 175 169 161 155 154 156 152 150 153
123 159 175 252 250 225 234 231 211 212 205 216 238 257 252 254 243 231 208 195 200 202 198 192 188 183 183 184 182 178 176 173 165 169 175 170 160 160 163 164 156 146 143 140
140 138 148 235 272 357 261 225 202 204 200 191 220 240 242 246 238 227 213 203 209 210 204 196 194 191 190 188 182 180 177 167 167 172 171 169 165 165 171 164 153 153 155 148
154 139 146 179 133 233 246 232 195 203 227 210 226 242 229 230 239 239 217 206 211 211 205 200 195 193 189 184 177 170 162 163 168 171 170 169 167 166 161 155 161 160 153 154
170 154 151 161 207 262 287 252 173 188 249 213 214 245 254 228 358 287 238 212 210 208 204 198 191 186 176 172 166 158 159 163 167 174 176 174 168 165 163 167 171 164 154 155
134 141 148 158 187 228 242 249 206 140 259 253 202 219 226 123 163 269 257 214 212 203 192 183 170 160 163 164 157 158 164 168 178 183 181 173 168 168 172 173 166 156 153 158
132 139 169 177 207 253 251 246 117 151 243 258 202 207 189 190 216 249 255 208 192 182 175 164 159 164 168 160 157 162 167 181 184 174 166 162 166 172 169 160 153 148 145 141
170 166 179 165 191 244 231 139 170 216 239 221 209 206 202 223 248 261 233 192 153 145 147 151 156 160 157 156 158 164 179 181 163 156 158 162 162 165 159 149 146 145 144 144
189 186 182 188 207 231 205 201 220 201 218 233 220 224 182 207 244 250 184 159 145 141 146 149 149 147 149 160 163 170 176 155 150 152 158 158 153 153 148 150 149 143 146 150
242 175 155 216 253 251 251 248 243 225 220 235 222 198 178 199 211 186 149 144 135 132 144 140 140 143 152 160 163 165 153 148 148 153 156 151 149 146 143 147 151 153 161 162
215 171 161 224 262 294 285 259 257 260 253 270 90 174 187 171 172 162 149 145 143 133 140 142 147 154 160 158 153 147 145 144 145 149 151 149 148 150 146 142 148 161 174 176
206 186 176 211 217 202 245 264 257 215 216 189 127 357 324 160 157 144 140 141 137 134 137 138 140 146 150 148 147 147 148 147 146 147 150 151 150 149 147 141 116 80 111 137
Height
1513 1518 1523 1521 1520 1521 1524 1528 1529 1525 1519 1521 1523 1522 1520 1520 1521 1523 1524 1526 1527 1529 1532 1534 1537 1539 1541 1543 1545 1547 1548 1549 1551 1552 1552 1553 1554 1555 1555 1556 1556 1556 1557 1557
1518 1521 1516 1515 1517 1520 1523 1528 1528 1523 1518 1520 1522 1521 1517 1518 1518 1519 1521 1523 1525 1528 1531 1533 1535 1538 1540 1543 1545 1547 1548 1550 1551 1552 1553 1554 1555 1555 1556 1557 1557 1557 1558 1558
1518 1516 1512 1515 1518 1521 1523 1526 1526 1525 1521 1520 1522 1524 1519 1516 1516 1518 1519 1520 1523 1525 1528 1531 1534 1536 1539 1542 1544 1546 1548 1550 1551 1552 1554 1554 1555 1556 1557 1557 1558 1558 1559 1559
1515 1511 1512 1515 1517 1519 1525 1519 1520 1522 1528 1533 1528 1538 1522 1516 1515 1515 1516 1517 1519 1523 1526 1529 1532 1535 1538 1541 1544 1546 1548 1550 1551 1552 1554 1555 1555 1556 1557 1558 1558 1559 1559 1560
1514 1510 1512 1515 1515 1515 1518 1516 1519 1522 1527 1534 1531 1536 1528 1518 1516 1512 1511 1513 1515 1519 1522 1526 1529 1533 1537 1540 1543 1546 1548 1550 1551 1553 1554 1555 1556 1557 1557 1558 1559 1559 1560 1560
1510 1508 1509 1510 1510 1512 1515 1520 1524 1530 1534 1542 1533 1537 1531 1519 1512 1507 1506 1508 1511 1515 1519 1524 1528 1532 1536 1539 1542 1545 1547 1549 1551 1553 1554 1555 1556 1557 1558 1559 1559 1560 1560 1561
1513 1509 1507 1507 1512 1514 1517 1530 1543 1544 1549 1545 1531 1532 1526 1508 1503 1502 1502 1504 1507 1511 1516 1521 1525 1529 1533 1537 1540 1543 1546 1548 1550 1552 1554 1555 1557 1558 1558 1559 1560 1560 1561 1562
1521 1521 1508 1506 1510 1516 1519 1526 1544 1550 1551 1544 1532 1533 1516 1503 1500 1498 1498 1500 1504 1508 1513 1517 1522 1526 1531 1535 1538 1542 1545 1547 1550 1552 1554 1555 1557 1558 1559 1559 1560 1561 1561 1562
1519 1519 1506 1504 1505 1510 1520 1525 1526 1538 1540 1544 1537 1525 1510 1500 1499 1498 1498 1500 1502 1505 1510 1514 1519 1524 1529 1533 1536 1540 1543 1546 1549 1551 1553 1555 1557 1558 1559 1560 1560 1561 1562 1563
1509 1516 1508 1505 1506 1509 1512 1519 1531 1537 1545 1547 1537 1528 1520 1505 1501 1499 1499 1499 1501 1504 1508 1512 1517 1521 1526 1530 1535 1539 1542 1545 1548 1551 1553 1555 1556 1558 1559 1560 1561 1562 1563 1563
1505 1514 1512 1508 1509 1512 1516 1520 1526 1534 1537 1544 1544 1532 1506 1503 1499 1499 1498 1498 1500 1503 1506 1510 1514 1519 1524 1528 1533 1537 1541 1544 1547 1550 1552 1554 1556 1558 1559 1560 1561 1562 1563 1564
1504 1513 1518 1512 1505 1504 1507 1513 1522 1532 1535 1536 1539 1530 1500 1498 1496 1496 1496 1497 1499 1502 1504 1508 1512 1517 1521 1526 1530 1535 1539 1542 1545 1548 1551 1553 1555 1557 1559 1560 1561 1562 1563 1564
1502 1512 1522 1520 1516 1509 1508 1510 1513 1520 1529 1536 1537 1524 1498 1496 1495 1495 1496 1497 1498 1501 1503 1507 1511 1515 1519 1523 1528 1532 1536 1540 1544 1547 1550 1552 1554 1556 1558 1560 1561 1563 1564 1565
1497 1508 1515 1520 1515 1508 1508 1508 1510 1517 1527 1530 1526 1515 1502 1497 1496 1495 1495 1496 1497 1499 1502 1505 1508 1512 1516 1521 1525 1530 1534 1538 1542 1545 1548 1551 1553 1556 1558 1560 1561 1563 1564 1565
1496 1505 1505 1504 1501 1502 1502 1502 1506 1510 1512 1517 1513 1509 1500 1495 1494 1493 1494 1495 1496 1498 1500 1502 1506 1509 1514 1518 1523 1527 1531 1536 1539 1543 1546 1549 1552 1555 1557 1559 1561 1562 1564 1565
1496 1502 1503 1503 1499 1499 1500 1498 1500 1502 1503 1505 1504 1502 1492 1491 1491 1491 1492 1493 1494 1496 1498 1500 1503 1507 1510 1514 1519 1524 1528 1533 1537 1541 1544 1548 1551 1553 1556 1558 1560 1562 1563 1565
1497 1501 1506 1509 1501 1500 1504 1494 1494 1495 1495 1497 1500 1494 1489 1489 1489 1488 1489 1490 1491 1492 1494 1497 1499 1503 1507 1511 1516 1520 1525 1530 1534 1538 1542 1546 1549 1551 1554 1557 1559 1561 1562 1564
1496 1500 1506 1509 1507 1512 1496 1484 1485 1488 1488 1488 1488 1486 1486 1485 1485 1485 1486 1486 1487 1489 1491 1493 1496 1499 1503 1508 1513 1518 1523 1527 1531 1536 1540 1543 1547 1549 1552 1555 1557 1559 1561 1563
1489 1497 1505 1509 1510 1503 1491 1483 1483 1486 1487 1483 1484 1483 1483 1482 1483 1483 1483 1484 1484 1486 1488 1490 1493 1496 1501 1505 1510 1515 1520 1524 1528 1532 1536 1540 1544 1547 1550 1553 1555 1558 1560 1561
1489 1492 1501 1507 1508 1506 1490 1479 1478 1483 1488 1480 1480 1480 1481 1482 1486 1483 1480 1481 1482 1484 1486 1488 1491 1494 1498 1502 1507 1512 1516 1521 1525 1529 1534 1537 1541 1545 1547 1550 1553 1556 1558 1560
1493 1496 1500 1503 1503 1495 1481 1477 1478 1492 1488 1477 1477 1477 1478 1479 1480 1479 1479 1479 1481 1482 1484 1486 1489 1492 1496 1500 1505 1509 1514 1518 1523 1527 1531 1535 1539 1542 1545 1548 1551 1554 1556 1558
1487 1493 1497 1499 1500 1495 1475 1476 1480 1479 1474 1474 1474 1475 1475 1476 1476 1476 1476 1477 1478 1480 1482 1484 1487 1490 1494 1498 1503 1507 1511 1516 1521 1525 1529 1533 1536 1539 1543 1546 1548 1551 1553 1555
1479 1479 1482 1484 1483 1474 1472 1472 1472 1472 1472 1472 1472 1473 1473 1474 1474 1474 1475 1476 1477 1478 1480 1483 1486 1489 1493 1497 1501 1505 1510 1514 1518 1522 1526 1530 1533 1537 1540 1543 1545 1548 1550 1552
1474 1473 1475 1477 1473 1470 1470 1469 1470 1470 1470 1470 1471 1471 1472 1472 1472 1473 1474 1475 1476 1478 1480 1482 1485 1489 1492 1496 1500 1504 1508 1512 1516 1520 1524 1527 1530 1533 1537 1540 1543 1545 1548 1550
1470 1471 1473 1473 1470 1468 1467 1467 1467 1468 1468 1469 1469 1470 1470 1470 1471 1472 1473 1474 1476 1478 1480 1482 1485 1488 1491 1495 1499 1503 1507 1511 1514 1518 1521 1525 1528 1531 1534 1537 1540 1543 1545 1548
1467 1467 1469 1469 1465 1466 1465 1465 1465 1466 1466 1467 1467 1468 1469 1470 1470 1471 1472 1474 1476 1478 1480 1482 1485 1488 1491 1495 1498 1502 1506 1509 1513 1516 1519 1523 1526 1529 1532 1535 1538 1541 1543 1545